Terminal Aerodrome Forecast
Issued by NWS Quad Cities IA IL

Home | Current Version | Previous Version | Text Only | Print | Product List | Glossary On
Versions: 1 2 3 4 5 6 7 8 9 10 11 12 13 14 15 16 17 18 19 20 21 22
316
FTUS43 KDVN 081517 AAA
TAFDBQ
TAF AMD
KDBQ 081517Z 0815/0912 29016G24KT P6SM VCSH BKN020
      TEMPO 0815/0817 BKN018
     FM090900 30012KT P6SM FEW025=

USA.gov is the U.S. government's official web portal to all federal, state and local government web resources and services.